Regional Weather Roundup
Issued by NWS

Home | Current Version | Previous Version | Graphics & Text | Print | Product List | Glossary On
Versions: 1 2 3 4 5 6 7 8 9 10 11 12 13 14 15 16 17 18 19 20 21 22 23 24 25 26 27 28 29 30 31 32 33 34 35 36 37 38 39 40 41 42 43 44 45 46 47 48 49 50
000
ASUS43 KLOT 101807
RWRIL

ILLINOIS REGIONAL WEATHER ROUNDUP
NATIONAL WEATHER SERVICE CHICAGO/ROMEOVILLE IL
1200 PM CST SAT DEC 10 2016

NOTE: "FAIR" INDICATES FEW OR NO CLOUDS BELOW 12,000 FEET WITH NO
SIGNIFICANT WEATHER AND/OR OBSTRUCTIONS TO VISIBILITY.

* THESE STATIONS ARE NOT UNDER NWS QUALITY CONTROL. THEY ALSO MAY NOT
  REPORT WEATHER SUCH AS PRECIPITATION OR FOG.

ILZ001-002-007-009-015-016-024-101900-
NORTHWEST ILLINOIS

CITY           SKY/WX    TMP DP  RH WIND       PRES   REMARKS
MOLINE         CLOUDY    26  12  55 S6        30.46F WCI  19
6HR MIN TEMP:  21; 6HR MAX TEMP:  26;

STERLING*      MOSUNNY   24  15  68 CALM      30.47F
SAVANNA*       CLOUDY    24  15  68 S5        30.46F WCI  18
$$

ILZ003-004-008-010-011-017-018-101900-
NORTH CENTRAL ILLINOIS

CITY           SKY/WX    TMP DP  RH WIND       PRES   REMARKS
ROCKFORD       CLOUDY    22  13  68 VRB3      30.48F
6HR MIN TEMP:  17; 6HR MAX TEMP:  22;

FREEPORT*      CLOUDY    20  14  77 CALM      30.46F
ROCHELLE*      CLOUDY    22  16  78 SW6       30.47F WCI  14
DE KALB*       PTSUNNY   21  14  73 W7        30.46F WCI  12
$$

ILZ005-006-012>014-019>023-101900-
NORTHEAST ILLINOIS

CITY           SKY/WX    TMP DP  RH WIND       PRES   REMARKS
CHICAGO-OHARE  CLOUDY    23  13  65 W8        30.47F WCI  14
6HR MIN TEMP:  18; 6HR MAX TEMP:  23;

CHICAGO-MIDWAY PTSUNNY   24  12  60 SW8       30.48F WCI  15
6HR MIN TEMP:  20; 6HR MAX TEMP:  25;

AURORA         CLOUDY    23  15  71 W8        30.48F WCI  14
6HR MIN TEMP:  17; 6HR MAX TEMP:  23;

LANSING*       CLOUDY    24  16  72 SW12      30.49F WCI  13
JOLIET*        CLOUDY    25  15  67 SW6       30.49F WCI  18
WAUKEGAN       CLOUDY    24  12  60 W9        30.44F WCI  14
6HR MIN TEMP:  16; 6HR MAX TEMP:  24;

DUPAGE AIRPORT MOSUNNY   22  13  68 W8        30.46F WCI  12
6HR MIN TEMP:  17; 6HR MAX TEMP:  22;

KANKAKEE*      CLOUDY    25  16  67 CALM      30.50F
WHEELING       MOSUNNY   23  12  62 W10       30.48F WCI  12
6HR MIN TEMP:  18; 6HR MAX TEMP:  23;

MORRIS*        MOSUNNY   24  14  65 CALM      30.49F
ROMEOVILLE*    CLOUDY    23  18  80 W5        30.49F WCI  17
NORTHERLY ISL    N/A     24  13  62 S9          N/A  WCI  15
$$

LMZ740>746-101900-
SOUTHERN LAKE MICHIGAN

STATION/POSITION SKY/WX   TEMP    WIND        PRES    VSBY  WAVE
                          AIR SEA DIR/SP/G                  HT/PER
                          (F)     (DEG/KT/KT) (MB)    (MI)  (FT/S)
BURNHAM HARBOR             25     270/  7/ 11   N/A
CALUMET HARBOR             24     230/  6/ 12 1031.5F
BURNS HARBOR               25     260/ 11/ 13 1032.8F
$$

ILZ025>027-034>036-040-047-049-050-058-095>099-101900-
WEST-CENTRAL ILLINOIS

CITY           SKY/WX    TMP DP  RH WIND       PRES   REMARKS
QUINCY         CLOUDY    27  13  55 SE13      30.43F WCI  16
GALESBURG*     CLOUDY    26  15  64 SE5       30.45F WCI  20
MACOMB*        CLOUDY    28  13  54 S7        30.48F WCI  21
JACKSONVILLE*  CLOUDY    28  12  51 SE10      30.48F WCI  18
PITTSFIELD*    CLOUDY    29  16  58 SE9       30.47F WCI  20
$$

ILZ028>032-037-038-041>044-048-051>054-059>061-101900-
CENTRAL ILLINOIS

CITY           SKY/WX    TMP DP  RH WIND       PRES   REMARKS
PONTIAC        CLOUDY    26  15  62 SW6       30.49F WCI  20
BLOOMINGTON    CLOUDY    24  14  65 S8        30.49F WCI  15
DECATUR        CLOUDY    26  16  65 SW8       30.51F WCI  18
PEORIA         CLOUDY    26  13  57 S8        30.48F WCI  18
6HR MIN TEMP:  21; 6HR MAX TEMP:  26;

LACON*         CLOUDY    26  12  55 SW5       30.47F WCI  20
LINCOLN*       CLOUDY    28  14  57 S6        30.50F WCI  21
SPRINGFIELD    CLOUDY    28  12  51 SE7       30.49F WCI  21
6HR MIN TEMP:  24; 6HR MAX TEMP:  29;

TAYLORVILLE    CLOUDY    27  15  61 CALM      30.50F
6HR MIN TEMP:  23; 6HR MAX TEMP:  27;

$$

ILZ033-039-045-046-055>057-062-063-101900-
EAST-CENTRAL ILLINOIS

CITY           SKY/WX    TMP DP  RH WIND       PRES   REMARKS
CHAMPAIGN      CLOUDY    26  16  65 S8        30.51F WCI  18
RANTOUL*       CLOUDY    28  17  64 SW7       30.50F WCI  21
MATTOON        CLOUDY    27  16  63 S6        30.51F WCI  20
PARIS*         CLOUDY    27  19  71 SW5       30.53F WCI  22
$$

ILZ079-100>102-101900-
SOUTHWEST ILLINOIS

CITY           SKY/WX    TMP DP  RH WIND       PRES   REMARKS
ALTON          CLOUDY    30  18  59 SE8       30.49F WCI  23
BELLEVILLE     CLOUDY    32  19  59 SE8       30.49F WCI  25
CAHOKIA*       CLOUDY    33  18  53 SE6       30.50F WCI  28
SPARTA*        MOSUNNY   32  18  55 S8        30.51F WCI  25
$$

ILZ064>066-069>071-074>076-080>082-084>086-088>090-092>094-101900-
SOUTH-CENTRAL ILLINOIS

CITY           SKY/WX    TMP DP  RH WIND       PRES   REMARKS
CARBONDALE     PTSUNNY   33  20  58 S7        30.53F WCI  27
6HR MIN TEMP:  20; 6HR MAX TEMP:  33;

CAIRO*         MOSUNNY   34  18  52 SE7       30.54F WCI  28
EFFINGHAM*     CLOUDY    29  18  62 S3        30.54F
MARION         PTSUNNY   32  19  59 S9        30.54F WCI  24
CENTRALIA*     CLOUDY    32  19  59 CALM      30.50F
SALEM*         CLOUDY    32  18  55 SE6       30.51F WCI  26
METROPOLIS*    MOSUNNY   35  18  50 CALM      30.55F
$$

ILZ067-068-072-073-078-083-087-091-101900-
SOUTHEAST ILLINOIS

CITY           SKY/WX    TMP DP  RH WIND       PRES   REMARKS
LAWRENCEVILLE  CLOUDY    29  17  61 S7        30.55F WCI  22
FLORA*         MOSUNNY   31  19  61 S6        30.54F WCI  25
FAIRFIELD*     CLOUDY    31  18  59 CALM      30.52F
HARRISBURG*    SUNNY     33  19  57 CALM      30.54F
ROBINSON*      CLOUDY    27  17  65 S3        30.56F
CARMI*         MOSUNNY   32  20  62 SE5       30.54F WCI  27
$$

ABBREVIATIONS USED IN REMARKS
   TC - TEMPERATURE IN CELSIUS
  WCI - WIND CHILL INDEX
   HX - HEAT INDEX
  VSB - VISIBILITY
$$




USA.gov is the U.S. government's official web portal to all federal, state and local government web resources and services.